CAPE
0 0 0 0 0 2 0 2 6 4 4 0 77 377 448 254 236 130 46 22 21 30 14 29 8 5 0 10 15 22 22 5
0 0 0 0 0 0 0 5 3 3 7 1 199 52 383 451 291 134 116 87 73 31 1 54 0 0 0 7 16 30 5 21
0 0 0 0 0 0 0 0 7 6 5 7 6 157 314 346 300 163 236 109 62 60 6 15 7 0 2 7 2 0 1 7
0 0 0 0 0 0 0 0 0 9 4 9 8 158 105 187 119 457 296 288 91 29 21 3 6 0 1 11 4 4 1 4
0 0 0 0 0 0 0 1 0 0 3 4 4 5 50 49 301 365 331 335 125 54 86 0 11 0 2 12 5 0 5 2
0 0 0 0 0 0 0 0 0 0 0 5 7 4 1 356 325 277 287 194 88 77 134 38 0 2 0 0 0 0 1 1
0 0 0 0 0 0 0 0 0 2 0 0 6 5 3 2 424 341 163 154 116 97 170 101 0 0 0 0 0 0 0 0
0 0 0 0 0 0 0 0 0 1 3 1 2 5 8 7 131 400 339 283 312 263 210 173 27 0 0 3 0 0 0 0
0 0 0 0 0 0 2 0 0 1 2 6 5 4 6 5 7 289 312 357 259 357 276 194 107 2 0 12 21 0 4 1
0 0 0 0 0 0 5 4 3 0 6 4 4 6 4 3 4 6 327 510 424 310 251 220 185 110 52 30 42 28 39 65
0 0 0 0 1 3 8 5 3 6 6 2 2 5 1 6 4 7 91 430 436 354 281 185 133 110 129 122 82 59 44 85
0 0 0 0 6 3 5 8 3 2 2 2 2 6 2 2 5 3 4 328 310 178 20 5 6 4 37 31 60 18 53 17
0 0 0 0 8 10 10 8 6 5 1 2 2 6 2 0 1 0 0 6 129 38 1 6 4 4 11 0 1 0 8 44
0 0 1 0 6 10 10 10 11 10 6 2 2 8 3 1 2 0 0 0 0 0 54 13 20 4 6 0 1 16 23 15
0 6 7 0 1 18 17 15 18 6 4 3 1 6 1 1 1 0 2 0 0 0 0 0 0 0 0 0 9 20 43 27
0 1 2 5 7 14 10 18 25 19 7 6 7 4 2 1 7 0 5 5 0 0 0 0 0 0 0 0 0 0 1 32
0 0 2 9 17 34 31 17 33 20 16 15 11 2 0 0 9 7 14 8 0 0 0 1 0 0 0 0 0 0 0 0
0 0 4 16 18 21 9 12 12 15 12 7 9 4 4 7 3 13 16 7 4 4 1 0 0 0 0 0 0 0 0 0
0 2 6 8 7 12 0 8 6 11 10 13 9 2 4 4 0 0 0 0 0 1 0 0 0 0 0 0 0 0 0 0
CIN
-0 -0 -0 -0 -0 -0 -0 -0 -0 -0 -0 -0 -12 -11 -15 -15 -11 -24 -52 -44 -50 -23 -15 -27 -24 -17 -2 -15 -11 -10 -12 -16
-0 -0 -0 -0 -0 -0 -0 -0 -0 -0 -0 -0 -0 -108 -11 -12 -13 -20 -25 -24 -37 -38 -5 -46 -6 -0 -0 -23 -18 -9 -16 -16
-0 -0 -0 -0 -0 -0 -0 -0 -0 -0 -0 -0 -0 -19 -3 -19 -12 -14 -31 -59 -51 -40 -9 -15 -20 -0 -19 -26 -10 -1 -8 -19
-0 -0 -0 -0 -0 -0 -0 -0 -0 -0 -0 -0 -0 -14 -1 -6 -7 -11 -11 -25 -63 -77 -85 -6 -16 -0 -5 -15 -16 -12 -2 -8
-0 -0 -0 -0 -0 -0 -0 -0 -0 -0 -0 -0 -0 -0 -49 -98 -5 -1 -14 -12 -20 -75 -53 -0 -15 -0 -5 -22 -15 -0 -14 -9
-0 -0 -0 -0 -0 -0 -0 -0 -0 -0 -0 -0 -0 -0 -0 -10 -6 -7 -15 -28 -52 -45 -45 -55 -0 -18 -0 -0 -0 -0 -5 -8
-0 -0 -0 -0 -0 -0 -0 -0 -0 -1 -0 -0 -0 -0 -0 -0 -3 -0 -17 -41 -62 -80 -23 -10 -5 -0 -0 -0 -0 -0 -0 -0
-0 -0 -0 -0 -0 -0 -0 -0 -0 -0 -0 -0 -0 -0 -0 -0 -34 -1 -0 -3 -4 -13 -11 -7 -37 -0 -0 -5 -0 -0 -0 -0
-0 -0 -0 -0 -0 -0 -0 -0 -0 -0 -1 -0 -0 -0 -0 -0 -0 -4 -9 -3 -47 -8 -31 -18 -67 -54 -2 -24 -11 -0 -8 -4
-0 -0 -0 -0 -0 -0 -0 -0 -0 -0 -1 -0 -0 -0 -0 -0 -0 -0 -1 -3 -10 -27 -34 -29 -14 -22 -16 -30 -14 -15 -6 -9
-0 -0 -0 -0 -0 -0 -0 -0 -0 -0 -0 -0 -0 -0 -0 -0 -0 -0 -15 -3 -7 -14 -20 -17 -19 -11 -27 -17 -21 -24 -20 -10
-0 -0 -0 -0 -0 -0 -0 -1 -0 -0 -0 -0 -0 -0 -0 -0 -0 -0 -0 -1 -10 -7 -76 -30 -19 -18 -44 -21 -19 -42 -0 -4
-0 -0 -0 -0 -0 -0 -0 -1 -1 -0 -0 -0 -0 -0 -0 -0 -0 -0 -0 -42 -17 -73 -5 -124 -128 -137 -62 -0 -47 -0 -13 -1
-0 -0 -0 -0 -0 -2 -1 -0 -1 -1 -0 -0 -0 -0 -0 -0 -0 -0 -0 -0 -0 -0 -63 -6 -56 -1 -139 -0 -0 -23 -27 -18
-0 -0 -2 -0 -0 -0 -0 -0 -0 -0 -0 -0 -0 -0 -0 -0 -0 -0 -1 -0 -0 -0 -0 -0 -10 -0 -0 -0 -14 -28 -16 -4
-0 -0 -3 -0 -0 -0 -0 -0 -0 -0 -0 -0 -0 -0 -0 -0 -0 -0 -2 -0 -0 -0 -0 -0 -0 -0 -0 -0 -0 -0 -17 -6
-0 -0 -1 -0 -0 -0 -0 -0 -0 -0 -0 -0 -0 -0 -0 -0 -0 -1 -1 -2 -0 -0 -0 -0 -0 -0 -0 -0 -0 -0 -0 -0
-0 -0 -0 -0 -0 -0 -0 -0 -0 -0 -0 -0 -0 -0 -0 -0 -0 -1 -1 -5 -11 -7 -7 -0 -0 -0 -0 -0 -0 -0 -0 -0
-0 -0 -0 -0 -0 -0 -0 -0 -0 -0 -0 -0 -0 -1 -0 -0 -0 -0 -0 -0 -0 -0 -0 -0 -0 -0 -0 -0 -0 -0 -0 -0
Wind_Speed
9 6 7 6 6 7 12 9 11 11 6 3 9 10 8 7 5 8 11 7 8 6 4 6 5 4 4 3 5 4 3 4
11 10 11 6 7 9 11 11 12 10 5 2 8 2 8 6 7 8 7 6 6 6 4 5 5 4 5 6 3 4 4 4
11 11 11 11 10 8 8 9 9 8 5 6 4 3 6 6 8 9 10 11 9 7 5 4 6 4 5 5 4 3 3 3
11 12 11 11 12 13 8 7 8 9 9 5 5 3 3 4 2 1 5 8 11 9 9 5 6 5 4 5 5 5 4 3
11 12 12 11 11 11 11 9 5 7 11 8 8 3 6 6 6 7 7 8 11 12 10 9 6 7 5 6 5 4 4 4
10 10 12 12 11 12 9 10 10 6 8 9 8 8 6 6 9 12 10 9 9 10 10 10 7 5 8 7 6 7 4 4
11 11 11 11 11 10 12 10 10 9 6 8 9 10 10 9 10 8 8 8 9 11 10 10 10 8 8 7 9 8 9 5
11 13 12 10 12 13 11 13 12 10 10 8 8 10 10 11 9 8 7 8 5 9 13 13 10 12 10 8 8 8 9 8
12 13 12 12 13 13 12 14 13 13 10 10 9 9 7 8 10 4 7 9 9 12 12 11 12 12 12 10 7 9 9 9
14 13 13 14 14 14 13 13 14 14 12 11 11 9 10 9 12 9 11 10 9 12 11 12 11 13 11 8 8 8 9 9
12 11 13 13 14 13 13 13 14 14 15 12 11 9 10 9 10 11 8 8 8 6 8 8 10 7 8 8 7 7 9 8
10 9 11 12 13 13 12 10 13 13 14 13 13 10 10 9 9 10 7 7 6 6 6 5 4 6 3 4 4 2 5 4
9 9 10 11 11 10 12 10 9 11 13 13 13 11 11 9 8 9 4 4 6 7 8 8 10 8 7 9 10 7 8 7
9 10 9 9 11 11 11 11 10 9 12 13 12 11 10 9 8 7 4 4 4 4 5 6 5 5 6 6 7 7 6 10
10 9 9 9 12 12 11 11 11 11 11 12 12 11 9 9 8 5 5 2 4 5 4 3 4 5 6 5 7 6 6 7
12 10 8 10 11 14 13 12 11 10 11 11 12 11 9 9 11 6 4 6 5 6 6 5 7 8 6 6 5 4 2 6
14 13 9 10 11 9 10 11 10 10 11 11 13 9 9 8 10 6 6 4 6 5 6 7 10 8 8 9 6 3 3 2
15 14 11 9 8 7 9 10 9 9 9 10 11 8 8 7 3 9 7 4 3 5 6 13 12 9 10 7 6 3 4 3
13 12 13 13 10 9 11 7 7 7 6 5 3 3 5 3 2 5 4 5 9 11 12 12 10 8 10 12 10 5 5 6
Wind_Direction
53 66 92 57 48 32 24 8 1 345 312 339 291 178 161 156 187 163 174 176 161 178 226 167 159 167 175 183 169 203 195 179
39 34 24 76 56 42 31 7 5 8 345 352 254 199 152 169 177 167 160 173 170 170 221 166 159 193 187 181 170 192 224 186
29 22 21 12 27 67 45 19 10 5 1 333 314 259 192 183 189 182 175 177 175 168 209 191 172 189 186 175 177 201 209 166
20 15 15 5 14 11 49 43 10 357 355 334 303 264 188 160 248 209 226 175 170 186 184 217 180 189 197 188 180 199 184 202
19 10 5 359 10 9 7 12 45 15 355 345 349 315 247 177 197 192 192 180 178 188 185 198 196 191 218 185 178 194 226 194
14 4 358 2 0 359 358 356 359 43 15 347 335 325 321 235 185 195 186 198 198 199 191 193 205 192 206 179 182 195 203 211
4 353 353 3 355 355 340 345 349 355 19 357 338 320 320 321 200 190 204 208 198 194 207 203 200 204 208 214 187 192 206 205
353 344 346 351 352 345 339 337 336 345 337 351 336 322 306 297 265 184 187 207 210 211 201 204 199 201 202 209 209 192 198 212
344 332 338 353 346 336 337 331 326 330 334 338 327 316 308 303 311 201 196 219 194 225 207 204 208 197 205 208 211 204 207 209
330 336 352 343 334 330 328 322 321 319 325 322 315 314 310 313 314 308 232 215 206 207 210 204 207 208 200 204 223 216 215 220
335 343 335 330 324 320 329 318 310 315 314 310 305 305 299 299 302 288 283 227 208 193 202 210 211 220 223 221 232 236 232 232
337 342 321 324 315 311 310 312 307 304 300 304 300 298 296 294 291 296 306 241 211 172 145 141 154 162 195 227 255 251 251 213
341 339 321 316 310 313 307 306 299 298 297 293 291 291 289 289 293 297 294 296 154 168 174 184 169 176 191 203 222 215 214 202
335 315 314 324 321 314 312 309 305 300 292 286 283 281 279 282 274 281 298 236 122 106 161 202 210 196 208 223 222 227 202 229
319 309 330 328 324 313 313 312 299 290 279 276 274 274 273 274 274 263 249 215 139 141 126 130 121 108 44 339 234 224 226 225
320 324 342 321 318 310 315 302 295 293 281 273 266 269 269 272 258 240 224 212 154 157 153 138 94 74 37 9 4 19 34 256
323 329 327 317 309 304 301 301 293 288 278 272 265 258 267 271 244 222 206 199 179 160 145 120 91 71 18 24 359 336 309 293
326 327 329 330 326 320 301 302 297 282 269 270 265 254 254 255 238 206 206 167 101 160 150 100 81 52 10 3 359 276 266 235
322 327 327 326 346 326 311 305 302 297 294 285 340 347 257 177 176 96 92 69 68 80 88 91 84 47 13 2 339 250 241 67